Regional Weather Roundup
Issued by NWS

Home | Current Version | Previous Version | Text Only | Print | Product List | Glossary Off
Versions: 1 2 3 4 5 6 7 8 9 10 11 12 13 14 15 16 17 18 19 20 21 22 23 24 25 26 27 28 29 30 31 32 33 34 35 36 37 38 39 40 41 42 43 44 45 46 47 48 49 50

000
ASUS43 KMKX 271421
RWRWI

WISCONSIN REGIONAL WEATHER ROUNDUP
NATIONAL WEATHER SERVICE MILWAUKEE/SULLIVAN WI
900 AM CDT WED AUG 27 2014

NOTE: "FAIR" INDICATES FEW OR NO CLOUDS BELOW 12,000 FEET WITH NO
SIGNIFICANT WEATHER AND/OR OBSTRUCTIONS TO VISIBILITY.

WIZ001-002-006>008-014>016-023>028-271500-
NORTHWEST WISCONSIN

CITY           SKY/WX    TMP DP  RH WIND       PRES   REMARKS
SUPERIOR ARPT  SUNNY     58  52  83 CALM      30.22R
ASHLAND        SUNNY     61  52  72 NW6       30.22S
HAYWARD        SUNNY     59  51  75 NE6       30.22S
SIREN          SUNNY     61  51  70 CALM      30.22S
RICE LAKE      SUNNY     62  51  69 CALM      30.24R
LADYSMITH      SUNNY     61  51  70 N7        30.24R
EAU CLAIRE     MOSUNNY   64  57  78 NE6       30.20S
MENOMONIE      MOSUNNY   64  57  79 N6        30.21F
NEW RICHMOND   MOSUNNY   62  53  73 E5        30.22S
OSCEOLA        MOSUNNY   62  56  82 E3        30.25S
$$

WIZ003>005-009-010-017-018-271500-
NORTH CENTRAL WISCONSIN

CITY           SKY/WX    TMP DP  RH WIND       PRES   REMARKS
WOODRUFF       MOSUNNY   59  53  80 N5        30.21S
RHINELANDER    MOSUNNY   58  54  86 CALM      30.21S
EAGLE RIVER    MOSUNNY   59  49  69 N5        30.20S
LAND O LAKES   SUNNY     58  49  73 N5        30.21F
PHILLIPS       MOSUNNY   58  52  82 N8        30.21S
TOMAHAWK       MOSUNNY   59  53  82 CALM      30.21S
MEDFORD        SUNNY     59  55  86 NW3       30.23R
MERRILL        MOSUNNY   60  55  86 NW5       30.22R
$$

WIZ029-030-035-036-043>047-271500-
CENTRAL WISCONSIN

CITY           SKY/WX    TMP DP  RH WIND       PRES   REMARKS
WAUSAU         SUNNY     63  55  75 S3        30.20R
MOSINEE        MOSUNNY   63  54  72 CALM      30.23R
MARSHFIELD     PTSUNNY   64  55  72 CALM      30.21R
STEVENS POINT  MOSUNNY   61  51  69 CALM      30.22R
WAUPACA        SUNNY     66  55  66 CALM      30.21R
WAUTOMA        HVY RAIN  65  57  75 NE6       30.21R
WISC RAPIDS    SUNNY     66  53  63 SE3       30.21S
CAMP DOUGLAS   MOSUNNY   66  59  77 CALM      30.21R
$$

WIZ011>013-019>022-031-037>040-048>050-271500-
NORTHEAST WISCONSIN

CITY           SKY/WX    TMP DP  RH WIND       PRES   REMARKS
ANTIGO         MOSUNNY   59  55  85 W3        30.21R
STURGEON BAY   SUNNY     63  52  67 W3        30.20R
GREEN BAY      MOSUNNY   66  55  67 CALM      30.19R
MANITOWOC      MOSUNNY   65  59  81 NE3       30.19R
APPLETON       MOSUNNY   63  54  72 CALM      30.20R
CLINTONVILLE   SUNNY     63  52  67 NE3       30.20R
OSHKOSH        MOSUNNY   66  59  78 NE6       30.19R
$$

WIZ032>034-041-042-053>061-271500-
SOUTHWEST WISCONSIN

CITY           SKY/WX    TMP DP  RH WIND       PRES   REMARKS
LA CROSSE      MOSUNNY   68  59  73 N6        30.19R
SPARTA         PTSUNNY   64  56  76 CALM      30.21R
VIROQUA        CLOUDY    65  56  72 E3        30.21R
BOSCOBEL       MOSUNNY   68  58  70 CALM      30.18S
PRAIRIE DU CHI SUNNY     67  56  68 CALM      30.16F
PLATTEVILLE    FAIR      68  58  71 NE7       30.18F
$$

WIZ056-057-062-063-064-067-068-271500-
SOUTH CENTRAL WISCONSIN

CITY           SKY/WX    TMP DP  RH WIND       PRES   REMARKS
BARABOO/DELLS  MOSUNNY   64  56  74 CALM      30.20R
LONE ROCK      MOSUNNY   70  59  68 CALM      30.18R
WATERTOWN      PTSUNNY   65  60  84 CALM      30.17R
MADISON        PTSUNNY   65  59  81 N3        30.18R
MIDDLETON      CLOUDY    65  60  84 N5        30.19R
MONROE         SUNNY     68  59  73 NE6       30.16F
JANESVILLE     MOSUNNY   70  55  60 E6        30.15S
$$

WIZ051-052-058>065-066-070>072-271500-
SOUTHEAST WISCONSIN

CITY           SKY/WX    TMP DP  RH WIND       PRES   REMARKS
MILWAUKEE      MOSUNNY   68  62  81 NE7       30.16R
WAUKESHA       MOSUNNY   64  57  77 NE3       30.18R
MILWAUKEE/TIMM SUNNY     66  57  72 CALM      30.17S
RACINE         MOSUNNY   70  63  78 N7        30.17S
BURLINGTON     SUNNY     66  58  77 CALM      30.16R
KENOSHA        SUNNY     70  62  76 NE7       30.16S
FOND DU LAC    MOSUNNY   66  59  78 E5        30.20R
SHEBOYGAN      MOSUNNY   67  58  72 NE6       30.19R
WEST BEND      CLOUDY    64  59  82 N8        30.18R
JUNEAU         MOSUNNY   65  60  83 NE3       30.20R
$$

LSZ147-162-271500-
LAKE SUPERIOR

STATION/POSITION TIME  TEMP    WIND        PRES    WAVE
                       AIR SEA DIR/SP/G            HT/PER
                 (UTC) (F)     (DEG/KT/KT) (MB)    (FT/S)
W MID LAKE BUOY  1350   55 54  280/  4/  4 1022.4S   0
DEVILS ISLAND    1400   57     330/  5/  5 1023.0S
PORT WING        1300   56     180/  3/  3 1023.0
SAXON HARBOR     1300   58      CALM  /  4 1023.0R
$$

LMZ867-665-643>646-271500-
LAKE MICHIGAN

STATION/POSITION TIME  TEMP    WIND        PRES    WAVE
                       AIR SEA DIR/SP/G            HT/PER
                 (UTC) (F)     (DEG/KT/KT) (MB)    (FT/S)
N MID LAKE BUOY  1350   61 65  340/  8/ 10 1021.8R   1
NORTHPORT PIER   1300   62     350/  2/  3 1021.7R
SISTER BAY       1326             CALM       N/A
KEWAUNEE LAKESHO 1400   66     110/  1/  3 1021.2R
SHEBOYGAN LAKESH 1400   65 66   60/  7/  9 1022.0R
ATWATER BUOY     1400   67      10/  6/  8 1022.2S
MILWAUKEE LAKESH 1400   66      30/  5/  7   N/A
S MID LAKE BUOY  1350   68 69   90/  4/  6 1021.0R   0
KENOSHA   LAKESH 1400   68      30/  6/  9 1020.7S
$$

TC  - TEMPERATURE IN CELSIUS
VSB - VISIBILITY IN STATUTE MILES
WCI - WIND CHILL INDEX
HX  - HEAT INDEX



USA.gov is the U.S. government's official web portal to all federal, state and local government web resources and services.